Weather History for KF05 - September, 2013

Change the Weather History Date:

Wednesday, September 11, 2013

  Actual Average (KLTS) Record (KLTS)
Temperature  
Mean Temperature 82 °F -  
Max Temperature 94 °F 87 °F 105 °F (2000)
Min Temperature 70 °F 64 °F 51 °F (2001)
Cooling Degree Days 17    
Growing Degree Days 32 (Base 50)    
Moisture  
Dew Point 60 °F    
Average Humidity 47    
Maximum Humidity 74    
Minimum Humidity 26    
Precipitation  
Precipitation 0.00 in - - ()
Sea Level Pressure  
Sea Level Pressure 30.10 in    
Wind  
Wind Speed 7 mph (SSE)    
Max Wind Speed 15 mph    
Max Gust Speed 20 mph    
Visibility 10 miles    
Events      
Averages and records for this station are not official NWS values.
T = Trace of Precipitation, MM = Missing Value Source: NWS Daily Summary

Daily Weather History Graph

Daily Weather History Graph

Search for Another Location

Airport or City:

Trip Planner

Search our weather history database for the weather conditions in past years. The results will help you decide how hot, cold, wet, or windy it might be!

Date:

Astronomy

Sep. 11, 2013 Rise Set
Actual Time 7:17 AM CDT 7:48 PM CDT
Civil Twilight 6:52 AM CDT 8:14 PM CDT
Nautical Twilight 6:22 AM CDT 8:43 PM CDT
Astronomical Twilight 5:52 AM CDT 9:13 PM CDT
Moon 1:30 PM CDT (9/11) No Moon Set
Length of Visible Light 13h 21m
Length of Day
12h 31m
Waxing Crescent, 39% of the Moon is Illuminated
Sep 11
Waxing Crescent
Sep 12
First Quarter
Sep 19
Full
Sep 26
Last Quarter
Oct 4
New

Hourly Weather History & Observations

Time (CDT) Temp. Heat Index Dew Point Humidity Pressure Visibility Wind Dir Wind Speed Gust Speed Precip Events Conditions
12:15 AM 81.5 °F 82.5 °F 62.2 °F 52% 30.08 in 10.0 mi SSE 9.2 mph - N/A   Clear
12:35 AM 81.3 °F 82.3 °F 62.4 °F 52% 30.08 in 10.0 mi SSE 10.4 mph - N/A   Clear
12:55 AM 81.0 °F 82.1 °F 62.4 °F 53% 30.08 in 10.0 mi SSE 9.2 mph - N/A   Clear
1:15 AM 80.4 °F 81.5 °F 62.1 °F 53% 30.08 in 10.0 mi SSE 8.1 mph - N/A   Clear
1:35 AM 79.9 °F - 61.9 °F 54% 30.08 in 10.0 mi SSE 9.2 mph - N/A   Clear
1:55 AM 79.7 °F - 61.9 °F 54% 30.09 in 10.0 mi SSE 6.9 mph - N/A   Clear
2:15 AM 79.2 °F - 62.1 °F 56% 30.10 in 10.0 mi South 8.1 mph - N/A   Clear
2:35 AM 78.8 °F - 62.1 °F 56% 30.10 in 10.0 mi SSE 6.9 mph - N/A   Clear
2:55 AM 78.3 °F - 62.1 °F 57% 30.10 in 10.0 mi SSE 5.8 mph - N/A   Clear
3:15 AM 77.7 °F - 62.2 °F 59% 30.10 in 10.0 mi SSE 4.6 mph - N/A   Clear
3:35 AM 77.0 °F - 62.2 °F 60% 30.10 in 10.0 mi South 4.6 mph - N/A   Clear
3:55 AM 76.1 °F - 62.4 °F 62% 30.10 in 10.0 mi SE 3.5 mph - N/A   Scattered Clouds
4:15 AM 75.9 °F - 62.6 °F 63% 30.10 in 10.0 mi SE 3.5 mph - N/A   Scattered Clouds
4:35 AM 75.4 °F - 62.2 °F 64% 30.10 in 10.0 mi SSE 3.5 mph - N/A   Clear
4:55 AM 74.7 °F - 62.1 °F 65% 30.10 in 10.0 mi SE 3.5 mph - N/A   Clear
5:15 AM 74.1 °F - 62.2 °F 66% 30.10 in 10.0 mi SE 4.6 mph - N/A   Clear
5:35 AM 73.6 °F - 62.1 °F 67% 30.10 in 10.0 mi SE 4.6 mph - N/A   Clear
5:55 AM 73.4 °F - 62.4 °F 68% 30.10 in 10.0 mi SSE 4.6 mph - N/A   Clear
6:15 AM 73.0 °F - 62.6 °F 70% 30.11 in 10.0 mi SSE 3.5 mph - N/A   Clear
6:35 AM 72.5 °F - 62.4 °F 71% 30.11 in 10.0 mi SSE 3.5 mph - N/A   Clear
6:55 AM 72.1 °F - 62.4 °F 71% 30.12 in 10.0 mi SSE 3.5 mph - N/A   Clear
7:15 AM 72.0 °F - 62.4 °F 72% 30.12 in 10.0 mi Calm Calm - N/A   Clear
7:35 AM 71.1 °F - 61.9 °F 73% 30.13 in 10.0 mi Calm Calm - N/A   Clear
7:55 AM 70.7 °F - 61.9 °F 74% 30.13 in 10.0 mi Calm Calm - N/A   Clear
8:15 AM 70.5 °F - 61.7 °F 74% 30.13 in 10.0 mi Calm Calm - N/A   Clear
8:35 AM 72.7 °F - 62.8 °F 71% 30.14 in 10.0 mi Calm Calm - N/A   Mostly Cloudy
8:55 AM 75.0 °F - 63.9 °F 68% 30.15 in 10.0 mi Calm Calm - N/A   Scattered Clouds
9:15 AM 76.6 °F - 64.9 °F 67% 30.15 in 10.0 mi SSE 4.6 mph - N/A   Scattered Clouds
9:35 AM 79.0 °F - 65.7 °F 64% 30.16 in 10.0 mi SSE 6.9 mph - N/A   Scattered Clouds
9:48 AM 80.6 °F 82.7 °F 66.2 °F 61% 30.16 in 10.0 mi South 5.8 mph - N/A   Clear
9:55 AM 80.8 °F 82.8 °F 65.7 °F 60% 30.16 in 10.0 mi South 6.9 mph - N/A   Clear
10:08 AM 82.4 °F 84.6 °F 66.2 °F 58% 30.16 in 10.0 mi SSW 8.1 mph - N/A   Clear
10:15 AM 82.0 °F 83.9 °F 65.5 °F 57% 30.16 in 10.0 mi SSW 8.1 mph - N/A   Clear
10:28 AM 84.2 °F 85.6 °F 64.4 °F 51% 30.16 in 10.0 mi South 10.4 mph - N/A   Clear
10:35 AM 83.7 °F 85.3 °F 64.8 °F 53% 30.16 in 10.0 mi SSW 9.2 mph - N/A   Clear
10:48 AM 86.0 °F 87.3 °F 64.4 °F 48% 30.16 in 10.0 mi SSW 11.5 mph - N/A   Clear
10:55 AM 85.1 °F 86.6 °F 64.4 °F 50% 30.16 in 10.0 mi SSE 9.2 mph - N/A   Clear
11:08 AM 86.0 °F 87.3 °F 64.4 °F 48% 30.16 in 10.0 mi South 9.2 mph - N/A   Scattered Clouds
11:15 AM 85.6 °F 87.1 °F 64.2 °F 49% 30.16 in 10.0 mi South 8.1 mph - N/A   Scattered Clouds
11:29 AM 87.8 °F 89.4 °F 64.4 °F 46% 30.15 in 10.0 mi South 11.5 mph - N/A   Scattered Clouds
11:35 AM 86.9 °F 88.1 °F 64.0 °F 46% 30.15 in 10.0 mi South 11.5 mph - N/A   Scattered Clouds
11:48 AM 89.6 °F 90.1 °F 62.6 °F 40% 30.15 in 10.0 mi South 15.0 mph 18.4 mph N/A   Scattered Clouds
11:55 AM 88.3 °F 89.2 °F 63.3 °F 43% 30.15 in 10.0 mi South 12.7 mph 18.4 mph N/A   Scattered Clouds
12:08 PM 89.6 °F 90.1 °F 62.6 °F 40% 30.14 in 10.0 mi South 12.7 mph 18.4 mph N/A   Scattered Clouds
12:15 PM 88.5 °F 89.2 °F 62.4 °F 42% 30.14 in 10.0 mi South 12.7 mph 18.4 mph N/A   Clear
12:35 PM 88.0 °F 88.1 °F 61.9 °F 41% 30.14 in 10.0 mi South 10.4 mph 18.4 mph N/A   Clear
12:55 PM 89.4 °F 89.5 °F 61.5 °F 39% 30.13 in 10.0 mi SSE 13.8 mph 19.6 mph N/A   Scattered Clouds
1:15 PM 89.4 °F 89.5 °F 61.5 °F 39% 30.13 in 10.0 mi SSE 5.8 mph - N/A   Scattered Clouds
1:35 PM 91.9 °F 91.5 °F 60.1 °F 34% 30.13 in 10.0 mi South 12.7 mph - N/A   Scattered Clouds
1:55 PM 90.5 °F 90.1 °F 60.3 °F 36% 30.11 in 10.0 mi SE 8.1 mph 16.1 mph N/A   Scattered Clouds
2:15 PM 91.6 °F 91.0 °F 59.9 °F 34% 30.11 in 10.0 mi South 10.4 mph 18.4 mph N/A   Scattered Clouds
2:35 PM 92.8 °F 92.1 °F 59.0 °F 32% 30.10 in 10.0 mi SE 11.5 mph 17.3 mph N/A   Scattered Clouds
2:55 PM 92.7 °F 91.5 °F 58.1 °F 31% 30.09 in 10.0 mi South 12.7 mph 16.1 mph N/A   Scattered Clouds
3:15 PM 94.3 °F 93.0 °F 57.4 °F 29% 30.08 in 10.0 mi SSE 10.4 mph 17.3 mph N/A   Scattered Clouds
3:35 PM 93.0 °F 91.4 °F 56.3 °F 29% 30.08 in 10.0 mi SSE 8.1 mph - N/A   Mostly Cloudy
3:55 PM 92.3 °F 90.5 °F 55.6 °F 29% 30.07 in 10.0 mi SE 8.1 mph - N/A   Mostly Cloudy
4:15 PM 92.7 °F 90.9 °F 55.6 °F 29% 30.06 in 10.0 mi SE 12.7 mph - N/A   Mostly Cloudy
4:35 PM 93.9 °F 92.0 °F 55.2 °F 27% 30.06 in 10.0 mi South 12.7 mph - N/A   Scattered Clouds
4:55 PM 93.4 °F 91.0 °F 54.0 °F 26% 30.05 in 10.0 mi SSE 9.2 mph - N/A   Scattered Clouds
5:15 PM 93.9 °F 91.7 °F 54.0 °F 26% 30.05 in 10.0 mi South 9.2 mph - N/A   Scattered Clouds
5:35 PM 92.5 °F 90.4 °F 54.9 °F 28% 30.04 in 10.0 mi SSE 8.1 mph - N/A   Scattered Clouds
5:55 PM 93.9 °F 91.7 °F 54.5 °F 26% 30.03 in 10.0 mi SSE 12.7 mph 18.4 mph N/A   Scattered Clouds
6:15 PM 93.4 °F 91.3 °F 54.3 °F 27% 30.03 in 10.0 mi South 10.4 mph - N/A   Clear
6:35 PM 93.7 °F 91.4 °F 54.3 °F 26% 30.03 in 10.0 mi South 12.7 mph - N/A   Clear
6:55 PM 92.7 °F 90.4 °F 54.5 °F 27% 30.03 in 10.0 mi South 11.5 mph - N/A   Clear
7:15 PM 91.2 °F 89.1 °F 55.0 °F 29% 30.03 in 10.0 mi South 10.4 mph - N/A   Clear
7:35 PM 90.1 °F 88.1 °F 54.5 °F 30% 30.03 in 10.0 mi South 8.1 mph - N/A   Clear
7:55 PM 88.7 °F 86.7 °F 54.5 °F 31% 30.04 in 10.0 mi South 4.6 mph - N/A   Clear
8:15 PM 86.7 °F 84.9 °F 54.3 °F 33% 30.05 in 10.0 mi SSE 5.8 mph - N/A   Clear
8:35 PM 86.0 °F 84.2 °F 54.0 °F 33% 30.05 in 10.0 mi SSE 4.6 mph - N/A   Clear
8:55 PM 84.7 °F 83.3 °F 54.1 °F 35% 30.06 in 10.0 mi South 4.6 mph - N/A   Clear
9:15 PM 83.5 °F 82.4 °F 54.3 °F 37% 30.07 in 10.0 mi South 5.8 mph - N/A   Clear
9:35 PM 83.3 °F 82.3 °F 54.9 °F 38% 30.08 in 10.0 mi SSE 4.6 mph - N/A   Clear
9:55 PM 83.3 °F 82.2 °F 54.5 °F 37% 30.08 in 10.0 mi South 5.8 mph - N/A   Clear
10:15 PM 82.0 °F 81.4 °F 54.5 °F 39% 30.08 in 10.0 mi SE 3.5 mph - N/A   Clear
10:35 PM 80.8 °F 80.5 °F 54.7 °F 40% 30.08 in 10.0 mi ESE 3.5 mph - N/A   Clear
10:55 PM 80.6 °F 80.4 °F 54.7 °F 41% 30.08 in 10.0 mi ESE 3.5 mph - N/A   Clear
11:15 PM 80.8 °F 80.5 °F 54.7 °F 40% 30.08 in 10.0 mi ESE 3.5 mph - N/A   Clear
11:35 PM 80.8 °F 80.5 °F 54.7 °F 40% 30.07 in 10.0 mi SE 4.6 mph - N/A   Clear
11:55 PM 80.1 °F 80.1 °F 54.7 °F 41% 30.07 in 10.0 mi ESE 3.5 mph - N/A   Clear